GW1629 Weather Reports


Display with metric or nautical units.
time (UTC)temp
F
wind
direction
speed
MPH
gust
MPH
rain 1hr
in
rain 24hr
in
rain mn
in
humidity
%
barometer
mb
20260505163523 56 0.0 0.0 0.00 0.87 0.70 97 1014.5
20260505162521 56 0.0 0.0 0.00 0.87 0.70 97 1014.5
20260505161524 57 0.0 0.0 0.00 0.87 0.70 97 1014.5
20260505160542 57 0.0 0.0 0.00 0.87 0.70 97 1014.5
20260505152518 60 0.0 0.0 0.00 0.87 0.70 97 1014.5
20260505151521 62 135 0.0 2.0 0.00 0.87 0.70 97 1014.5
20260505150538 65 153 0.0 2.0 0.00 0.87 0.70 97 1014.5
20260505140523 63 0.0 0.0 0.00 0.87 0.70 97 1014.5
20260505124520 61 149 4.0 8.0 0.00 0.87 0.70 97 1014.5
20260505123519 60 158 1.0 4.0 0.00 0.87 0.70 97 1014.5
20260505122543 58 0.0 0.0 0.00 0.87 0.70 97 1014.5
20260505121518 58 158 0.0 3.0 0.00 0.87 0.70 97 1014.5
20260505120516 58 135 0.0 3.0 0.00 0.87 0.70 97 1014.5
20260505115524 58 0.0 0.0 0.00 0.87 0.70 97 1014.7
20260505114517 59 0.0 0.0 0.00 0.87 0.70 97 1014.5
20260505113523 60 0.0 0.0 0.00 0.87 0.70 97 1014.5
20260505112522 61 140 1.0 6.0 0.00 0.87 0.70 97 1014.5
20260505111525 61 150 2.0 6.0 0.00 0.87 0.70 97 1014.5
20260505110521 60 138 2.0 5.0 0.00 0.87 0.70 97 1014.5
20260505101522 60 132 2.0 7.0 0.00 0.87 0.70 97 1014.5
20260505100519 59 150 0.0 3.0 0.00 0.87 0.70 97 1014.5
20260505095516 60 155 1.0 8.0 0.00 0.87 0.70 97 1014.9
20260505094519 60 178 2.0 7.0 0.00 0.87 0.70 97 1014.9
20260505093518 59 138 2.0 6.0 0.00 0.87 0.70 97 1014.5
20260505092525 59 151 1.0 4.0 0.00 0.87 0.70 97 1014.5
20260505091538 57 158 1.0 6.0 0.00 0.87 0.70 97 1014.5
20260505090525 58 145 1.0 5.0 0.00 0.87 0.70 97 1014.5
20260505085523 58 148 1.0 4.0 0.00 0.87 0.70 97 1014.5
20260505084516 57 131 0.0 4.0 0.00 0.87 0.70 97 1014.5
20260505083524 56 142 1.0 4.0 0.00 0.87 0.70 97 1014.5
20260505082521 56 140 1.0 4.0 0.00 0.87 0.70 97 1014.5
20260505081525 55 158 0.0 2.0 0.00 0.87 0.70 93 1014.5
20260505080523 54 0.0 0.0 0.00 0.87 0.70 87 1014.5
20260505075517 53 158 0.0 2.0 0.00 0.87 0.70 83 1014.5
20260505074523 53 135 0.0 4.0 0.00 0.87 0.70 87 1014.5
20260505073519 53 140 0.0 3.0 0.04 0.87 0.70 93 1014.5
20260505072517 54 158 0.0 3.0 0.04 0.87 0.70 93 1014.5
20260505071521 53 138 2.0 6.0 0.04 0.87 0.70 89 1014.5
20260505070540 53 151 1.0 4.0 0.04 0.87 0.70 82 1014.4
20260505065605 52 141 2.0 9.0 0.04 0.87 0.70 76 1014.5
20260505064520 52 0.0 0.0 0.04 0.87 0.70 73 1014.3
20260505063516 53 0.0 0.0 0.00 0.82 0.66 59 1013.8
20260505062545 52 0.0 0.0 0.00 0.82 0.66 52 1013.7
20260505061518 52 135 0.0 2.0 0.00 0.82 0.66 55 1013.5
20260505060606 52 135 0.0 2.0 0.00 0.82 0.66 51 1013.5
20260505055523 52 0.0 0.0 0.00 0.82 0.66 47 1013.5
20260505054516 51 0.0 0.0 0.00 0.82 0.66 47 1013.5
20260505053525 51 0.0 0.0 0.04 0.82 0.66 47 1013.5
20260505052524 51 0.0 0.0 0.17 0.82 0.66 47 1013.5
20260505051525 50 0.0 0.0 0.17 0.82 0.66 47 1013.5
20260505050522 50 0.0 0.0 0.17 0.82 0.66 50 1013.5
20260505041541 50 0.0 0.0 0.00 0.66 0.50 54 1013.5
20260505040522 50 0.0 0.0 0.04 0.66 0.50 55 1013.5
20260505035538 50 0.0 0.0 0.04 0.66 0.50 56 1013.5
20260505034523 50 0.0 0.0 0.04 0.66 0.50 56 1013.5
20260505033520 50 0.0 0.0 0.04 0.66 0.50 57 1013.5
20260505032525 50 0.0 0.0 0.04 0.66 0.50 58 1013.5
20260505031519 50 0.0 0.0 0.04 0.66 0.50 59 1013.7
20260505030518 50 0.0 0.0 0.00 0.62 0.45 61 1013.6
20260505025523 50 0.0 0.0 0.00 0.62 0.45 63 1013.5
20260505024537 50 180 0.0 3.0 0.04 0.62 0.45 69 1013.5
20260505023525 50 0.0 0.0 0.04 0.62 0.45 77 1013.5
20260505022522 51 0.0 0.0 0.08 0.62 0.45 82 1013.5
20260505021517 51 285 1.0 7.0 0.17 0.62 0.45 87 1014.1
20260505020521 51 335 1.0 7.0 0.21 0.62 0.45 91 1013.7
20260505015519 51 0.0 0.0 0.25 0.62 0.45 92 1014.4
20260505014524 51 84 1.0 7.0 0.25 0.58 0.41 97 1014.5
20260505013540 50 36 4.0 6.0 0.29 0.58 0.41 92 1014.2
20260505012516 50 45 2.0 6.0 0.29 0.53 0.37 64 1014.4
20260505011523 50 203 0.0 3.0 0.21 0.45 0.29 60 1014.5
20260505010520 50 203 0.0 3.0 0.21 0.41 0.25 62 1014.5
20260505005518 50 203 0.0 5.0 0.21 0.37 0.21 64 1015.2
20260505004541 50 0.0 0.0 0.16 0.33 0.16 65 1015.0
20260505003521 50 0.0 0.0 0.12 0.29 0.12 70 1015.5
20260505002544 50 0.0 0.0 0.08 0.24 0.08 75 1015.5
20260505001520 50 158 0.0 4.0 0.08 0.24 0.08 79 1015.5
20260505000537 50 158 0.0 3.0 0.04 0.20 0.04 87 1015.5
20260504235524 50 0.0 0.0 0.00 0.16 0.00 97 1015.5
20260504234519 50 178 2.0 8.0 0.00 0.16 0.00 97 1015.5
20260504233545 50 0.0 2.0 0.00 0.16 0.00 97 1015.6
20260504232522 51 190 1.0 6.0 0.00 0.16 0.00 97 1015.5
20260504231524 51 140 1.0 8.0 0.00 0.16 0.00 97 1015.5
20260504230522 51 141 3.0 8.0 0.00 0.16 0.00 97 1015.5
20260504225519 51 89 2.0 5.0 0.00 0.16 0.00 97 1015.5
20260504224525 51 77 4.0 11.0 0.00 0.16 0.00 97 1015.8
20260504223520 51 49 4.0 11.0 0.00 0.16 0.00 97 1016.2
20260504222521 52 65 3.0 7.0 0.00 0.16 0.00 97 1016.5
20260504221523 52 15 8.0 16.0 0.00 0.16 0.00 97 1016.4
20260504220518 52 43 5.0 14.0 0.00 0.16 0.00 97 1016.4
20260504215516 51 47 6.0 10.0 0.00 0.16 0.16 97 1016.5
20260504214559 51 60 6.0 11.0 0.00 0.16 0.16 97 1016.5
20260504213516 51 83 5.0 11.0 0.04 0.16 0.16 97 1016.6
20260504212524 51 101 5.0 14.0 0.04 0.16 0.16 97 1016.8
20260504211519 51 15 6.0 18.0 0.04 0.16 0.16 97 1017.3
20260504210523 50 43 7.0 18.0 0.08 0.16 0.16 97 1017.3
20260504205541 49 45 3.0 7.0 0.08 0.16 0.16 97 1017.5
20260504204516 49 125 2.0 10.0 0.08 0.16 0.16 97 1017.5
20260504203523 49 78 2.0 7.0 0.04 0.12 0.12 97 1017.5
20260504202523 49 122 2.0 7.0 0.04 0.12 0.12 97 1017.5
20260504201545 49 300 1.0 6.0 0.04 0.12 0.12 97 1017.5
20260504200524 49 65 1.0 6.0 0.00 0.08 0.08 97 1017.5
20260504195518 49 135 0.0 3.0 0.04 0.08 0.08 97 1018.4
20260504194523 49 122 2.0 4.0 0.04 0.08 0.08 96 1017.7
20260504193520 49 135 0.0 3.0 0.04 0.08 0.08 97 1017.5
20260504192518 50 78 2.0 5.0 0.04 0.08 0.08 97 1017.5
20260504191521 50 124 4.0 11.0 0.04 0.08 0.08 97 1017.5
20260504190521 51 158 1.0 6.0 0.04 0.08 0.08 94 1017.5
20260504185516 51 116 1.0 4.0 0.00 0.04 0.04 90 1017.5
20260504184521 51 0.0 0.0 0.00 0.04 0.04 92 1017.5
20260504183520 51 0.0 0.0 0.00 0.04 0.04 97 1017.5
20260504182516 51 0.0 0.0 0.04 0.04 0.04 97 1017.5
20260504181519 52 151 1.0 4.0 0.04 0.04 0.04 97 1017.5
20260504180516 52 152 1.0 4.0 0.04 0.04 0.04 97 1017.5
20260504175516 52 93 1.0 4.0 0.04 0.04 0.04 97 1017.5
20260504174521 52 113 0.0 4.0 0.04 0.04 0.04 97 1017.5
20260504173525 52 112 0.0 3.0 0.04 0.04 0.04 97 1017.5
20260504172521 53 139 2.0 6.0 0.00 0.00 0.00 97 1017.9
20260504171517 53 158 0.0 5.0 0.00 0.00 0.00 97 1017.6
20260504170521 53 0.0 2.0 0.00 0.00 0.00 97 1017.5